Satellite-Ground Cal/Val Site Overpasses Predictions

Prediction of Satellite NPP Overpassing Cal/Val Site: Antarctic Dome C

Ground Cal/Val Site Location: Latitude: -75.10, Longitude: 123.35; Satellite-Ground Site NADIR distance within 100 km.

Table of predicted overpasses for the next 14.0 days since TLE Epoch: 11/3/2017
Interval Starting Time Ending Time Minimum Distance Time Minimum Distance (km)
1 11/04/2017 07:44:38 11/04/2017 07:44:57 11/04/2017 07:44:48 74.53
2 11/05/2017 07:25:45 11/05/2017 07:26:13 11/05/2017 07:25:59 33.24
3 11/07/2017 15:08:12 11/07/2017 15:08:19 11/07/2017 15:08:15 96.46
4 11/08/2017 14:49:10 11/08/2017 14:49:39 11/08/2017 14:49:25 14.93
5 11/10/2017 07:32:00 11/10/2017 07:32:30 11/10/2017 07:32:15 3.58
6 11/13/2017 14:55:27 11/13/2017 14:55:55 11/13/2017 14:55:41 21.72
7 11/14/2017 14:36:45 11/14/2017 14:36:59 11/14/2017 14:36:52 85.36
8 11/15/2017 07:38:17 11/15/2017 07:38:43 11/15/2017 07:38:30 39.63


NCC Satellite Cal/Val Overpasses Prediction Service
